CST,Max TemperatureF,Mean TemperatureF,Min TemperatureF,Max Dew PointF,MeanDew PointF,Min DewpointF,Max Humidity, Mean Humidity, Min Humidity, Max Sea Level PressureIn, Mean Sea Level PressureIn, Min Sea Level PressureIn, Max VisibilityMiles, Mean VisibilityMiles, Min VisibilityMiles, Max Wind SpeedMPH, Mean Wind SpeedMPH, Max Gust SpeedMPH,PrecipitationIn, CloudCover, Events, WindDirDegrees
2013-11-1,56,46,35,37,32,27,82,59,35,30.12,29.92,29.70,10,10,10,36,18,44,T,4,,316
2013-11-2,58,44,29,27,25,20,75,50,24,30.24,30.12,29.91,10,10,10,20,10,28,0.00,0,,229
2013-11-3,60,48,36,36,32,28,82,60,37,29.88,29.70,29.56,10,10,10,22,13,30,0.00,0,,151
2013-11-4,51,39,27,35,30,25,92,64,36,30.15,29.99,29.71,10,10,10,22,9,30,0.00,2,,6
2013-11-5,36,31,25,32,31,23,100,91,82,30.21,30.06,29.96,10,3,0,20,11,26,0.41,7,Fog-Rain-Snow,29
2013-11-6,36,31,26,29,26,24,100,85,70,30.35,30.25,30.13,10,10,10,15,6,18,0.00,4,,282
2013-11-7,46,37,27,34,29,25,89,74,58,30.49,30.37,30.15,10,10,10,15,7,24,0.00,0,,272
2013-11-8,66,48,30,40,34,29,92,62,32,30.12,29.88,29.70,10,10,10,24,8,31,0.00,0,,206
2013-11-9,58,44,30,34,30,27,92,64,36,30.37,30.20,30.02,10,10,10,12,4,15,0.00,2,,332
2013-11-10,52,37,22,40,32,22,100,81,62,30.39,30.26,30.12,10,8,0,23,7,33,0.00,2,Fog,190
2013-11-11,38,28,17,38,23,10,100,80,59,30.85,30.39,30.10,10,7,0,24,13,32,0.00,4,Fog,8
2013-11-12,40,24,8,25,17,6,92,73,54,30.88,30.74,30.47,10,10,10,20,6,37,0.00,0,,193
2013-11-13,61,42,22,34,29,21,96,66,36,30.45,30.16,29.94,10,10,10,18,7,28,0.00,0,,197
2013-11-14,58,42,25,40,32,23,100,68,36,30.03,29.95,29.90,10,10,10,17,6,24,0.00,1,,352
2013-11-15,57,43,28,38,33,27,100,69,38,29.89,29.70,29.47,10,10,10,28,8,37,0.00,0,,170
2013-11-16,61,44,27,35,27,15,100,59,18,29.44,29.37,29.33,10,10,9,25,9,31,0.00,1,,296
2013-11-17,49,34,19,37,27,17,92,67,42,30.14,29.75,29.40,10,10,10,37,15,48,T,2,Rain,289
2013-11-18,59,41,22,23,20,15,88,55,21,30.25,30.15,30.06,10,10,10,23,6,28,0.00,0,,231
2013-11-19,58,44,29,34,27,20,70,54,38,30.06,29.87,29.73,10,10,10,30,12,39,0.00,0,,179
2013-11-20,61,46,30,35,31,24,79,53,27,30.06,29.80,29.69,10,10,10,31,9,40,0.00,2,,354
2013-11-21,30,21,11,21,11,5,88,80,71,30.74,30.43,30.11,10,5,0,37,22,45,T,8,Fog-Snow,352
2013-11-22,31,19,6,16,9,2,80,67,53,30.77,30.72,30.66,10,10,9,22,6,26,T,0,Snow,299
2013-11-23,25,17,8,12,9,5,92,72,51,30.91,30.80,30.69,10,10,10,13,5,24,0.00,1,,64
2013-11-24,36,24,12,29,20,8,92,81,69,30.66,30.35,30.09,10,10,10,31,15,43,0.00,1,,195
2013-11-25,43,31,18,27,22,18,96,70,43,30.31,30.21,30.10,10,10,10,23,10,28,0.00,0,,325
2013-11-26,31,19,6,19,12,3,88,62,36,30.50,30.43,30.30,10,10,10,24,11,31,0.00,3,,346
2013-11-27,48,26,4,27,17,1,88,65,41,30.48,30.22,30.04,10,10,10,22,9,40,0.00,0,,227
2013-11-28,35,26,16,24,20,15,92,81,69,30.46,30.36,30.15,10,10,8,22,7,28,0.00,4,,16
2013-11-29,42,29,16,28,21,15,92,76,59,30.44,30.26,30.14,10,9,7,23,8,40,0.00,0,,188
2013-11-30,60,39,17,30,24,17,96,62,27,30.19,30.15,30.07,10,10,6,10,3,12,0.00,0,,347